User: anonymous   Login
Location: Columbia
(38.9520°N, 92.3340°W)
Time: 19:45:41
(UTC-06:00)
Language:

Cosmos 158 Rocket - Orbit

View from above orbital plane
View from above orbital plane
View from above satellite
View from above satellite

Ground track
Ground track

The orbit data is extracted from the following two-line orbital elements,

1 02802U 67045B   17052.21191925  .00000091  00000-0  34159-4 0  9995
2 02802  74.0125  22.5804 0065335 105.3275 255.5115 14.43621666612247
Epoch (UTC): 21 February 2017 05:05:09
Eccentricity: 0.0065335
inclination: 74.0125°
perigee height: 700 km
apogee height: 793 km
right ascension of ascending node: 22.5804°
argument of perigee: 105.3275°
revolutions per day: 14.43621666
mean anomaly at epoch: 255.5115°
orbit number at epoch: 61224

The dashed part of the orbit path shows where the satellite is in the earth's shadow,  

DLR